Location: Newark
(12.4436°N, 0.6167°W)
Time: 20:54:16
(UTC+00:00)

Courier 1B Rocket - Visible Passes

Search period start: 11 December 2019 00:00
Search period end: 21 December 2019 00:00
Orbit: 920 x 1202 km, 28.2° (Epoch: 10 December)

Date Brightness Start Highest point End Pass type
(mag) Time Alt. Az. Time Alt. Az. Time Alt. Az.
11 Dec 6.0 03:31:32 45° ENE 03:31:32 45° ENE 03:36:12 10° ENE visible
11 Dec 5.7 05:17:58 17° W 05:23:00 38° NNW 05:29:14 10° NE visible
12 Dec 7.8 02:34:55 10° ENE 02:34:55 10° ENE 02:34:59 10° ENE visible
12 Dec 5.3 04:21:20 52° NNW 04:21:40 52° NNW 04:28:27 10° NE visible
13 Dec 6.7 03:24:35 27° NE 03:24:35 27° NE 03:27:33 10° ENE visible
13 Dec 6.1 05:10:59 20° WNW 05:14:32 30° NNW 05:20:27 10° NE visible
14 Dec 5.9 04:14:07 37° N 04:14:07 37° N 04:19:38 10° NE visible
15 Dec 7.2 03:17:09 18° NE 03:17:09 18° NE 03:18:46 10° NE visible
15 Dec 6.4 05:03:33 21° NW 05:06:10 25° NNW 05:11:46 10° NE visible
16 Dec 6.4 04:06:31 27° N 04:06:31 27° N 04:10:51 10° NE visible
17 Dec 7.6 03:09:24 12° NE 03:09:24 12° NE 03:09:56 10° NE visible
17 Dec 6.5 04:55:47 20° NNW 04:57:54 23° N 05:03:17 10° NE visible
18 Dec 6.8 03:58:38 22° NNE 03:58:38 22° NNE 04:02:10 10° NE visible
18 Dec 6.6 05:45:53 10° NW 05:51:21 22° N 05:56:33 10° NE visible
19 Dec 6.6 04:47:48 20° NNW 04:49:40 22° N 04:55:02 10° NE visible
20 Dec 7.0 03:50:35 20° NNE 03:50:35 20° NNE 03:53:40 10° NE visible
20 Dec 6.6 05:37:12 10° NW 05:43:07 25° N 05:48:43 10° ENE visible
